DW4379 Weather Reports


Display with metric or nautical units.
time (UTC)temp
F
wind
direction
speed
MPH
gust
MPH
rain 1hr
in
rain 24hr
in
rain mn
in
humidity
%
barometer
mb
20260901133503 80 234 0.0 1.0 0.00 0.00 0.00 82 1016.7
20260901133218 80 234 0.0 1.0 0.00 0.00 0.00 82 1016.6
20260901132504 80 229 0.0 1.0 0.00 0.00 0.00 83 1016.6
20260901132003 79 228 0.0 1.0 0.00 0.00 0.00 83 1016.6
20260901131717 79 232 0.0 1.0 0.00 0.00 0.00 83 1016.7
20260901131218 79 225 0.0 1.0 0.00 0.00 0.00 84 1016.8
20260901130717 79 224 0.0 1.0 0.00 0.00 0.00 84 1016.9
20260901130003 79 127 0.0 1.0 0.00 0.00 0.00 84 1016.8
20260901125504 79 233 0.0 1.0 0.00 0.00 0.00 84 1016.8
20260901125004 78 232 0.0 1.0 0.00 0.00 0.00 84 1016.8
20260901124504 79 226 0.0 1.0 0.00 0.00 0.00 84 1016.8
20260901124003 78 0 0.0 0.0 0.00 0.00 0.00 84 1016.8
20260901123717 78 226 0.0 1.0 0.00 0.00 0.00 85 1016.8
20260901123004 77 226 0.0 1.0 0.00 0.00 0.00 86 1016.8
20260901122504 76 0 0.0 0.0 0.00 0.00 0.00 87 1016.8
20260901122218 76 0 0.0 0.0 0.00 0.00 0.00 87 1016.6
20260901121504 76 0 0.0 0.0 0.00 0.00 0.00 88 1016.4
20260901121003 75 0 0.0 0.0 0.00 0.00 0.00 88 1016.4
20260901120504 75 146 0.0 1.0 0.00 0.00 0.00 88 1016.4
20260901120004 75 146 0.0 1.0 0.00 0.00 0.00 88 1016.3
20260901115718 75 0 0.0 0.0 0.00 0.00 0.00 88 1016.3
20260901115003 75 0 0.0 0.0 0.00 0.00 0.00 88 1016.2
20260901114719 75 0 0.0 0.0 0.00 0.00 0.00 88 1016.1
20260901114003 75 146 0.0 1.0 0.00 0.00 0.00 88 1016.0
20260901113504 75 146 0.0 1.0 0.00 0.00 0.00 88 1016.1
20260901113003 75 0 0.0 0.0 0.00 0.00 0.00 88 1016.0
20260901112503 75 0 0.0 0.0 0.00 0.00 0.00 88 1016.0
20260901112004 75 0 0.0 0.0 0.00 0.00 0.00 88 1016.0
20260901111503 75 0 0.0 0.0 0.00 0.00 0.00 88 1015.9
20260901111004 75 0 0.0 0.0 0.00 0.00 0.00 88 1015.8
20260901110503 75 0 0.0 0.0 0.00 0.00 0.00 88 1015.8
20260901110004 75 230 0.0 1.0 0.00 0.00 0.00 88 1015.9
20260901105503 75 230 0.0 1.0 0.00 0.00 0.00 88 1015.9
20260901105003 75 0 0.0 0.0 0.00 0.00 0.00 88 1015.9
20260901104504 75 0 0.0 0.0 0.00 0.00 0.00 88 1015.8
20260901104003 75 0 0.0 0.0 0.00 0.00 0.00 87 1015.8
20260901103503 75 0 0.0 0.0 0.00 0.00 0.00 87 1015.8
20260901103217 75 0 0.0 0.0 0.00 0.00 0.00 87 1015.8
20260901102718 75 0 0.0 0.0 0.00 0.00 0.00 87 1015.8
20260901102003 76 0 0.0 0.0 0.00 0.00 0.00 87 1015.7
20260901101503 76 0 0.0 0.0 0.00 0.00 0.00 87 1015.8
20260901101217 76 0 0.0 0.0 0.00 0.00 0.00 87 1015.7
20260901100504 76 0 0.0 0.0 0.00 0.00 0.00 87 1015.7
20260901100003 76 0 0.0 0.0 0.00 0.00 0.00 87 1015.7
20260901095503 76 0 0.0 0.0 0.00 0.00 0.00 87 1015.7
20260901095003 76 0 0.0 0.0 0.00 0.00 0.00 87 1015.6
20260901094503 76 0 0.0 0.0 0.00 0.00 0.00 86 1015.6
20260901094217 76 0 0.0 0.0 0.00 0.00 0.00 86 1015.6
20260901093503 76 0 0.0 0.0 0.00 0.00 0.00 86 1015.7
20260901093217 76 0 0.0 0.0 0.00 0.00 0.00 86 1015.6
20260901092718 76 0 0.0 0.0 0.00 0.00 0.00 86 1015.6
20260901092003 76 0 0.0 0.0 0.00 0.00 0.00 86 1015.6
20260901091503 76 0 0.0 0.0 0.00 0.00 0.00 86 1015.6
20260901091218 76 0 0.0 0.0 0.00 0.00 0.00 86 1015.6
20260901090503 76 0 0.0 0.0 0.00 0.00 0.00 86 1015.6
20260901090219 76 0 0.0 0.0 0.00 0.00 0.00 86 1015.6
20260901085503 76 0 0.0 0.0 0.00 0.00 0.00 86 1015.5
20260901085004 76 0 0.0 0.0 0.00 0.00 0.00 86 1015.5
20260901084504 76 0 0.0 0.0 0.00 0.00 0.00 86 1015.5
20260901084003 76 0 0.0 0.0 0.00 0.00 0.00 85 1015.5
20260901083504 77 0 0.0 0.0 0.00 0.00 0.00 85 1015.5
20260901083003 77 0 0.0 0.0 0.00 0.00 0.00 85 1015.6
20260901082504 77 0 0.0 0.0 0.00 0.00 0.00 85 1015.5
20260901082003 77 0 0.0 0.0 0.00 0.00 0.00 85 1015.5
20260901081504 77 0 0.0 0.0 0.00 0.00 0.00 85 1015.5
20260901081218 77 0 0.0 0.0 0.00 0.00 0.00 85 1015.5
20260901080504 77 0 0.0 0.0 0.00 0.00 0.00 84 1015.5
20260901080003 77 0 0.0 0.0 0.00 0.00 0.00 84 1015.5
20260901075504 77 0 0.0 0.0 0.00 0.00 0.00 84 1015.6
20260901075004 78 0 0.0 0.0 0.00 0.00 0.00 84 1015.6
20260901074504 78 0 0.0 0.0 0.00 0.00 0.00 84 1015.6
20260901074218 78 0 0.0 0.0 0.00 0.00 0.00 83 1015.5
20260901073717 78 0 0.0 0.0 0.00 0.00 0.00 83 1015.5
20260901073003 78 0 0.0 0.0 0.00 0.00 0.00 83 1015.3
20260901072503 78 0 0.0 0.0 0.00 0.00 0.00 83 1015.3
20260901072004 78 0 0.0 0.0 0.00 0.00 0.00 83 1015.4
20260901071503 78 0 0.0 0.0 0.00 0.00 0.00 83 1015.4
20260901071218 78 0 0.0 0.0 0.00 0.00 0.00 83 1015.3
20260901070719 78 0 0.0 0.0 0.00 0.00 0.00 83 1015.3
20260901070218 78 0 0.0 0.0 0.00 0.00 0.00 83 1015.3
20260901065504 78 0 0.0 0.0 0.00 0.00 0.00 83 1015.4
20260901065218 78 0 0.0 0.0 0.00 0.00 0.00 83 1015.4
20260901064503 78 0 0.0 0.0 0.00 0.00 0.00 82 1015.4
20260901064004 78 0 0.0 0.0 0.00 0.00 0.00 82 1015.5
20260901063503 78 0 0.0 0.0 0.00 0.00 0.00 82 1015.5
20260901063004 79 0 0.0 0.0 0.00 0.00 0.00 82 1015.5
20260901062503 79 0 0.0 0.0 0.00 0.00 0.00 82 1015.6
20260901062004 79 0 0.0 0.0 0.00 0.00 0.00 82 1015.5
20260901061503 79 0 0.0 0.0 0.00 0.00 0.00 81 1015.4
20260901061217 79 0 0.0 0.0 0.00 0.00 0.00 81 1015.5
20260901060718 79 0 0.0 0.0 0.00 0.00 0.00 81 1015.5
20260901060004 79 0 0.0 0.0 0.00 0.00 0.00 81 1015.6
20260901055504 79 0 0.0 0.0 0.00 0.00 0.00 80 1015.7
20260901055003 79 0 0.0 0.0 0.00 0.00 0.00 80 1015.7
20260901054504 80 0 0.0 0.0 0.00 0.00 0.00 80 1015.6
20260901054003 80 0 0.0 0.0 0.00 0.00 0.00 80 1015.6
20260901053503 80 0 0.0 0.0 0.00 0.00 0.00 80 1015.5
20260901053003 80 0 0.0 0.0 0.00 0.00 0.00 80 1015.5
20260901052718 80 0 0.0 0.0 0.00 0.00 0.00 80 1015.5
20260901052004 80 0 0.0 0.0 0.00 0.00 0.00 80 1015.5
20260901051504 80 0 0.0 0.0 0.00 0.00 0.00 80 1015.4
20260901051003 80 0 0.0 0.0 0.00 0.00 0.00 80 1015.3
20260901050504 80 0 0.0 0.0 0.00 0.00 0.00 80 1015.3
20260901050003 80 0 0.0 0.0 0.00 0.00 0.00 80 1015.3
20260901045504 80 0 0.0 0.0 0.00 0.00 0.00 80 1015.3
20260901045217 80 0 0.0 0.0 0.00 0.00 0.00 79 1015.3
20260901044505 80 0 0.0 0.0 0.00 0.00 0.00 79 1015.4
20260901044003 80 0 0.0 0.0 0.00 0.00 0.00 79 1015.3
20260901043503 80 0 0.0 0.0 0.00 0.00 0.00 79 1015.3
20260901043004 80 0 0.0 0.0 0.00 0.00 0.00 78 1015.2
20260901042503 81 0 0.0 0.0 0.00 0.00 0.00 78 1015.3
20260901042003 81 0 0.0 0.0 0.00 0.00 0.00 78 1015.4
20260901041718 81 0 0.0 0.0 0.00 0.00 0.00 78 1015.3
20260901041003 81 0 0.0 0.0 0.00 0.00 0.00 77 1015.4
20260901040503 81 0 0.0 0.0 0.00 0.00 0.00 77 1015.4
20260901040009 81 0 0.0 0.0 0.00 0.00 0.00 77 1015.4
20260901035504 81 0 0.0 0.0 0.00 0.00 0.00 77 1015.5
20260901035004 82 0 0.0 0.0 0.00 0.00 0.00 76 1015.4
20260901034504 82 0 0.0 0.0 0.00 0.00 0.00 76 1015.4
20260901034004 82 0 0.0 0.0 0.00 0.00 0.00 75 1015.4
20260901033717 82 0 0.0 0.0 0.00 0.00 0.00 75 1015.4
20260901033004 82 0 0.0 0.0 0.00 0.00 0.00 74 1015.5
20260901032503 83 0 0.0 0.0 0.00 0.00 0.00 74 1015.6
20260901032218 83 0 0.0 0.0 0.00 0.00 0.00 74 1015.6
20260901031504 83 0 0.0 0.0 0.00 0.00 0.00 73 1015.5
20260901031004 83 0 0.0 0.0 0.00 0.00 0.00 73 1015.7
20260901030504 83 0 0.0 0.0 0.00 0.00 0.00 72 1015.6
20260901030004 83 0 0.0 0.0 0.00 0.00 0.00 72 1015.5
20260901025504 84 0 0.0 0.0 0.00 0.00 0.00 72 1015.4
20260901025003 84 0 0.0 0.0 0.00 0.00 0.00 72 1015.4
20260901024504 84 0 0.0 0.0 0.00 0.00 0.00 71 1015.4
20260901024003 84 0 0.0 0.0 0.00 0.00 0.00 71 1015.3
20260901023717 84 0 0.0 0.0 0.00 0.00 0.00 71 1015.3
20260901023003 84 0 0.0 0.0 0.00 0.00 0.00 70 1015.3
20260901022503 84 0 0.0 0.0 0.00 0.00 0.00 70 1015.2
20260901022218 84 216 0.0 1.0 0.00 0.00 0.00 70 1015.1
20260901021504 84 219 0.0 1.0 0.00 0.00 0.00 69 1015.0
20260901021003 85 223 0.0 1.0 0.00 0.00 0.00 69 1015.1
20260901020717 85 223 0.0 1.0 0.00 0.00 0.00 69 1015.1
20260901020003 85 223 0.0 1.0 0.00 0.00 0.00 69 1014.9
20260901015503 85 182 0.0 1.0 0.00 0.00 0.00 69 1014.9
20260901015004 85 186 0.0 1.0 0.00 0.00 0.00 69 1014.9
20260901014504 85 231 0.0 1.0 0.00 0.00 0.00 69 1015.0
20260901014003 85 238 0.0 1.0 0.00 0.00 0.00 68 1014.9
20260901013504 86 246 0.0 1.0 0.00 0.00 0.00 68 1014.8
20260901013003 86 0 0.0 0.0 0.00 0.00 0.00 69 1014.8
20260901012503 86 228 0.0 1.0 0.00 0.00 0.00 69 1014.9
20260901012003 86 228 0.0 1.0 0.00 0.00 0.00 68 1014.7
20260901011718 86 226 0.0 1.0 0.00 0.00 0.00 69 1014.6
20260901011004 86 223 0.0 1.0 0.00 0.00 0.00 68 1014.6
20260901010719 86 219 0.0 1.0 0.00 0.00 0.00 68 1014.6
20260901010004 87 231 0.0 1.0 0.00 0.00 0.00 67 1014.5
20260901005504 87 231 0.0 1.0 0.00 0.00 0.00 67 1014.6
20260901005218 87 0 0.0 0.0 0.00 0.00 0.00 67 1014.5
20260901004503 88 0 0.0 0.0 0.00 0.00 0.00 66 1014.5
20260901004003 88 0 0.0 0.0 0.00 0.00 0.00 65 1014.4
20260901003503 89 0 0.0 0.0 0.00 0.00 0.00 64 1014.4
20260901003217 89 0 0.0 0.0 0.00 0.00 0.00 64 1014.4
20260901002503 89 207 0.0 1.0 0.00 0.00 0.00 62 1014.3
20260901002003 90 207 0.0 1.0 0.00 0.00 0.00 60 1014.5
20260901001718 90 0 0.0 0.0 0.00 0.00 0.00 60 1014.5
20260901001004 90 207 0.0 1.0 0.00 0.00 0.00 58 1014.5
20260901000504 90 208 0.0 1.0 0.00 0.00 0.00 58 1014.4
20260901000004 91 210 0.0 1.0 0.00 0.00 0.00 57 1014.3
20260831235718 91 0 0.0 0.0 0.00 0.00 0.00 57 1014.4
20260831235004 92 212 0.0 1.0 0.00 0.00 0.00 56 1014.3
20260831234503 92 212 0.0 1.0 0.00 0.00 0.00 55 1014.4
20260831234217 92 0 0.0 0.0 0.00 0.00 0.00 55 1014.4
20260831233504 93 213 0.0 1.0 0.00 0.00 0.00 55 1014.5
20260831233008 93 211 0.0 1.0 0.00 0.00 0.00 55 1014.5
20260831232503 93 210 0.0 1.0 0.00 0.00 0.00 54 1014.4
20260831232003 94 0 0.0 0.0 0.00 0.00 0.00 53 1014.3
20260831231503 94 0 0.0 0.0 0.00 0.00 0.00 54 1014.5
20260831231004 94 102 0.0 1.0 0.00 0.00 0.00 53 1014.4
20260831230504 94 102 0.0 1.0 0.00 0.00 0.00 52 1014.4
20260831230003 94 0 0.0 0.0 0.00 0.00 0.00 52 1014.4
20260831225503 94 0 0.0 0.0 0.00 0.00 0.00 53 1014.5
20260831225003 94 230 0.0 3.0 0.00 0.00 0.00 52 1014.5
20260831224717 94 230 0.0 3.0 0.00 0.00 0.00 51 1014.4
20260831224004 95 258 0.0 1.0 0.00 0.00 0.00 51 1014.5
20260831223503 95 0 0.0 0.0 0.00 0.00 0.00 52 1014.6
20260831223219 95 0 0.0 0.0 0.00 0.00 0.00 50 1014.5
20260831222504 95 167 0.0 1.0 0.00 0.00 0.00 49 1014.4
20260831222218 95 182 0.0 1.0 0.00 0.00 0.00 49 1014.5
20260831221503 95 192 0.0 2.0 0.00 0.00 0.00 49 1014.5
20260831221003 95 167 0.0 2.0 0.00 0.00 0.00 51 1014.5
20260831220504 95 148 0.0 2.0 0.00 0.00 0.00 49 1014.6
20260831220218 95 156 0.0 2.0 0.00 0.00 0.00 49 1014.5
20260831215503 96 232 0.0 6.0 0.00 0.00 0.00 49 1014.4
20260831215003 96 218 0.0 6.0 0.00 0.00 0.00 49 1014.5
20260831214717 96 176 0.0 6.0 0.00 0.00 0.00 50 1014.5
20260831214003 95 118 0.0 4.0 0.00 0.00 0.00 49 1014.5
20260831213504 95 140 0.0 5.0 0.00 0.00 0.00 51 1014.5
20260831213004 96 175 1.0 5.0 0.00 0.00 0.00 49 1014.4
20260831212504 96 216 1.0 4.0 0.00 0.00 0.00 49 1014.5
20260831212003 96 179 0.0 4.0 0.00 0.00 0.00 48 1014.6
20260831211503 96 134 0.0 2.0 0.00 0.00 0.00 49 1014.5
20260831211004 96 166 0.0 2.0 0.00 0.00 0.00 49 1014.6
20260831210503 96 182 0.0 2.0 0.00 0.00 0.00 47 1014.7
20260831210003 96 225 0.0 3.0 0.00 0.00 0.00 48 1014.8
20260831205504 95 129 1.0 4.0 0.00 0.00 0.00 47 1014.8
20260831205003 96 139 1.0 4.0 0.00 0.00 0.00 47 1014.8
20260831204503 96 151 1.0 3.0 0.00 0.00 0.00 49 1014.8
20260831204004 96 136 1.0 3.0 0.00 0.00 0.00 48 1015.0
20260831203503 96 165 1.0 3.0 0.00 0.00 0.00 48 1015.0
20260831203004 96 148 0.0 3.0 0.00 0.00 0.00 47 1014.9
20260831202504 96 64 0.0 3.0 0.00 0.00 0.00 45 1015.0
20260831202003 96 116 1.0 5.0 0.00 0.00 0.00 48 1015.2
20260831201503 96 120 1.0 5.0 0.00 0.00 0.00 47 1015.2
20260831201003 96 120 1.0 5.0 0.00 0.00 0.00 47 1015.3
20260831200504 97 253 0.0 3.0 0.00 0.00 0.00 46 1015.4
20260831200004 97 250 0.0 3.0 0.00 0.00 0.00 45 1015.6
20260831195503 97 228 0.0 4.0 0.00 0.00 0.00 46 1015.6
20260831195004 97 145 0.0 4.0 0.00 0.00 0.00 46 1015.7
20260831194503 97 122 1.0 4.0 0.00 0.00 0.00 48 1015.7
20260831194003 97 126 1.0 5.0 0.00 0.00 0.00 46 1015.7
20260831193503 97 132 1.0 5.0 0.00 0.00 0.00 46 1015.9
20260831193004 97 203 0.0 3.0 0.00 0.00 0.00 46 1015.8
20260831192504 97 222 0.0 3.0 0.00 0.00 0.00 46 1016.0
20260831192003 97 226 0.0 4.0 0.00 0.00 0.00 47 1015.9
20260831191503 97 200 0.0 6.0 0.00 0.00 0.00 48 1016.0
20260831191004 97 158 1.0 6.0 0.00 0.00 0.00 45 1016.0
20260831190718 97 147 1.0 5.0 0.00 0.00 0.00 49 1016.1
20260831190004 97 189 0.0 4.0 0.00 0.00 0.00 50 1016.2
20260831185718 97 192 0.0 4.0 0.00 0.00 0.00 49 1016.2
20260831185003 96 213 0.0 3.0 0.00 0.00 0.00 48 1016.3
20260831184718 96 248 0.0 2.0 0.00 0.00 0.00 50 1016.4
20260831184217 96 236 1.0 5.0 0.00 0.00 0.00 49 1016.5
20260831183504 96 226 0.0 3.0 0.00 0.00 0.00 51 1016.4
20260831183004 96 222 0.0 2.0 0.00 0.00 0.00 51 1016.4
20260831182503 95 169 0.0 4.0 0.00 0.00 0.00 51 1016.6
20260831182003 94 209 1.0 4.0 0.00 0.00 0.00 53 1016.7
20260831181504 94 221 1.0 4.0 0.00 0.00 0.00 53 1016.7
20260831181217 94 229 1.0 4.0 0.00 0.00 0.00 53 1016.6
20260831180718 94 236 0.0 4.0 0.00 0.00 0.00 55 1016.6
20260831180004 94 233 0.0 4.0 0.00 0.00 0.00 56 1016.7
20260831175503 93 218 0.0 3.0 0.00 0.00 0.00 55 1016.9
20260831175003 93 245 0.0 3.0 0.00 0.00 0.00 55 1016.9
20260831174504 93 247 1.0 3.0 0.00 0.00 0.00 56 1016.9
20260831174219 93 246 1.0 3.0 0.00 0.00 0.00 55 1017.0
20260831173503 93 263 0.0 2.0 0.00 0.00 0.00 57 1017.0
20260831173004 92 276 1.0 3.0 0.00 0.00 0.00 57 1016.9
20260831172504 92 266 0.0 3.0 0.00 0.00 0.00 57 1017.0
20260831172003 92 244 0.0 5.0 0.00 0.00 0.00 59 1017.1
20260831171503 92 250 1.0 5.0 0.00 0.00 0.00 60 1017.2
20260831171003 92 223 1.0 3.0 0.00 0.00 0.00 59 1017.1
20260831170504 92 212 1.0 3.0 0.00 0.00 0.00 59 1017.2
20260831170004 92 253 1.0 4.0 0.00 0.00 0.00 59 1017.2
20260831165503 91 253 1.0 4.0 0.00 0.00 0.00 59 1017.3
20260831165003 92 262 1.0 4.0 0.00 0.00 0.00 59 1017.4
20260831164718 92 250 1.0 4.0 0.00 0.00 0.00 60 1017.3
20260831164004 92 232 0.0 3.0 0.00 0.00 0.00 63 1017.3
20260831163503 92 229 0.0 4.0 0.00 0.00 0.00 63 1017.4
20260831163004 91 197 1.0 4.0 0.00 0.00 0.00 63 1017.3
20260831162504 91 150 1.0 4.0 0.00 0.00 0.00 64 1017.3
20260831162004 91 195 0.0 3.0 0.00 0.00 0.00 65 1017.3
20260831161503 90 198 0.0 3.0 0.00 0.00 0.00 67 1017.3
20260831161008 90 189 1.0 5.0 0.00 0.00 0.00 68 1017.3
20260831160717 89 183 1.0 5.0 0.00 0.00 0.00 69 1017.3
20260831160003 89 150 0.0 3.0 0.00 0.00 0.00 69 1017.2
20260831155717 89 143 0.0 4.0 0.00 0.00 0.00 70 1017.3
20260831155008 88 123 1.0 4.0 0.00 0.00 0.00 72 1017.4
20260831154717 88 125 1.0 3.0 0.00 0.00 0.00 73 1017.4
20260831154003 87 159 1.0 6.0 0.00 0.00 0.00 74 1017.3
20260831153503 87 181 1.0 3.0 0.00 0.00 0.00 75 1017.3
20260831153218 86 199 1.0 3.0 0.00 0.00 0.00 74 1017.3
20260831152504 86 152 1.0 4.0 0.00 0.00 0.00 76 1017.4
20260831152218 86 138 1.0 4.0 0.00 0.00 0.00 75 1017.3
20260831151504 85 119 0.0 4.0 0.00 0.00 0.00 77 1017.3
20260831151003 85 168 0.0 3.0 0.00 0.00 0.00 77 1017.3
20260831150503 84 216 0.0 2.0 0.00 0.00 0.00 77 1017.3
20260831150003 84 150 0.0 3.0 0.00 0.00 0.00 78 1017.2
20260831145504 84 143 0.0 3.0 0.00 0.00 0.00 79 1017.2
20260831145004 83 121 0.0 3.0 0.00 0.00 0.00 80 1017.3
20260831144503 82 114 1.0 3.0 0.00 0.00 0.00 81 1017.2
20260831144004 82 119 0.0 3.0 0.00 0.00 0.00 82 1017.2
20260831143504 81 114 0.0 3.0 0.00 0.00 0.00 83 1017.2
20260831143003 81 118 0.0 3.0 0.00 0.00 0.00 83 1017.2
20260831142504 80 192 0.0 1.0 0.00 0.00 0.00 84 1017.2
20260831142217 80 191 0.0 3.0 0.00 0.00 0.00 84 1017.2
20260831141503 80 189 0.0 3.0 0.00 0.00 0.00 84 1017.2
20260831141003 79 143 0.0 1.0 0.00 0.00 0.00 85 1017.1
20260831140504 79 143 0.0 1.0 0.00 0.00 0.00 84 1017.2
20260831140004 79 0 0.0 0.0 0.00 0.00 0.00 85 1017.1
20260831135504 79 0 0.0 0.0 0.00 0.00 0.00 85 1017.2
20260831135004 79 156 0.0 1.0 0.00 0.00 0.00 85 1017.2
20260831134503 78 159 0.0 1.0 0.00 0.00 0.00 85 1017.2
20260831134003 78 169 0.0 2.0 0.00 0.00 0.00 85 1017.1